Regional Weather Roundup
Issued by NWS

Home | Current Version | Previous Version | Graphics & Text | Print | Product List | Glossary On
Versions: 1 2 3 4 5 6 7 8 9 10 11 12 13 14 15 16 17 18 19 20 21 22 23 24 25 26 27 28 29 30 31 32 33 34 35 36 37 38 39 40 41 42 43 44 45 46 47 48 49 50
000
ASUS45 KCYS 031010
RWRWY

WYOMING REGIONAL WEATHER ROUNDUP
NATIONAL WEATHER SERVICE CHEYENNE WY
400 AM MDT MON AUG 03 2015

NOTE:  "FAIR" INDICATES FEW OR NO CLOUDS BELOW 12,000 FEET
WITH NO SIGNIFICANT WEATHER AND/OR OBSTRUCTIONS TO VISIBILITY.

WYZ001-031100-
YELLOWSTONE NATIONAL PARK

CITY           SKY/WX    TMP DP  RH WIND       PRES   REMARKS
LK YELLOWSTONE   N/A     45  36  70 CALM      30.26R
W YELLOWSTONE  NOT AVBL

$$
WYZ002>013-054>058-071-098>099-031100-
NORTHERN WYOMING

CITY           SKY/WX    TMP DP  RH WIND       PRES   REMARKS
JACKSON        NOT AVBL
CODY           FAIR      66  41  39 W5        30.07S
GREYBULL       FAIR      62  39  42 CALM      29.98R
WORLAND        FAIR      64  38  38 S7        30.01R
SHERIDAN       FAIR      55  45  68 S3        30.02S
BUFFALO        FAIR      65  44  46 SW5       30.08S
GILLETTE       FAIR      55  48  77 SW3       30.06R
HULETT         FAIR      55  48  76 S6        30.07S
NEWCASTLE      FAIR      59  46  63 N7        30.04F

$$
WYZ014>020-022>026-101>103-031100-
CENTRAL WYOMING

CITY           SKY/WX    TMP DP  RH WIND       PRES   REMARKS
BIG PINEY      FAIR      55  33  43 N6        30.18S
PINEDALE       FAIR      50  37  62 W3        30.20R
DUBOIS         NOT AVBL
LANDER         FAIR      68  35  29 W8        30.08R
RIVERTON       FAIR      70  45  40 NE12      30.08S
CASPER         FAIR      58  50  75 N7        30.08S
DOUGLAS        FAIR      60  52  74 E6        30.06S

$$
WYZ021-027>030-104>119-031100-
SOUTHERN WYOMING

CITY           SKY/WX    TMP DP  RH WIND       PRES   REMARKS
EVANSTON       CLOUDY    61  48  62 SW12      30.19S
KEMMERER       FAIR      64  37  36 CALM      30.20R
FORT BRIDGER   PTSUNNY   68  43  40 W13       30.20S
ROCK SPRINGS   FAIR      62  45  53 SE5       30.17R
DIXON          FAIR      60  48  64 NE5       30.20F
RAWLINS        FAIR      63  46  54 W3        30.18S
SARATOGA       FAIR      59  45  58 S3        30.21S
LARAMIE        FAIR      61  45  55 S3        30.20S
CHEYENNE       FAIR      59  50  72 W6        30.13R
TORRINGTON     FAIR      64  54  69 NE3       29.99S
PINE BLUFFS    FAIR      59  50  72 W5        30.07S

$$


USA.gov is the U.S. government's official web portal to all federal, state and local government web resources and services.